Erwin, NC

6:04 PM EST on November 23, 2017 (GMT -0500)
Harnett County

Weather History for KHRJ - May, 2014

Change the Weather History Date:

Sunday, May 4, 2014

  Actual Average Record
Temperature  
Mean Temperature 68 °F -  
Max Temperature 84 °F 76 °F 92 °F (1965)
Min Temperature 52 °F 50 °F 37 °F (1986)
Cooling Degree Days 3    
Growing Degree Days 18 (Base 50)    
Moisture  
Dew Point 46 °F    
Average Humidity 48    
Maximum Humidity 83    
Minimum Humidity 24    
Precipitation  
Precipitation 0.00 in - - ()
Sea Level Pressure  
Sea Level Pressure 29.93 in    
Wind  
Wind Speed 2 mph (WSW)    
Max Wind Speed 9 mph    
Max Gust Speed 18 mph    
Visibility 10 miles    
Events      
Averages and records for this station are not official NWS values.
T = Trace of Precipitation, MM = Missing Value Source: NWS Daily Summary

Daily Weather History Graph

Daily Weather History Graph

Search for Another Location

Airport or City:

Trip Planner

Search our weather history database for the weather conditions in past years. The results will help you decide how hot, cold, wet, or windy it might be!

Date:

Astronomy

May. 04, 2014 Rise Set
Actual Time 6:20 AM EDT 8:03 PM EDT
Civil Twilight 5:52 AM EDT 8:31 PM EDT
Nautical Twilight 5:19 AM EDT 9:04 PM EDT
Astronomical Twilight 4:44 AM EDT 9:39 PM EDT
Moon 10:43 AM EDT (5/4) 12:06 AM EDT (5/4)
Length of Visible Light 14h 38m
Length of Day
13h 43m
Waxing Crescent, 27% of the Moon is Illuminated
May 4
Waxing Crescent
May 6
First Quarter
May 14
Full
May 21
Last Quarter
May 28
New

Hourly Weather History & Observations

Time (EDT) Temp. Dew Point Humidity Pressure Visibility Wind Dir Wind Speed Gust Speed Precip Events Conditions
12:15 AM 59.2 °F 48.9 °F 69% 29.94 in 10.0 mi SW 3.5 mph - N/A   Clear
12:35 AM 60.3 °F 48.2 °F 64% 29.94 in 10.0 mi Calm Calm - N/A   Clear
12:55 AM 61.5 °F 45.9 °F 56% 29.94 in 10.0 mi Calm Calm - N/A   Clear
1:15 AM 60.1 °F 46.2 °F 60% 29.95 in 10.0 mi Calm Calm - N/A   Clear
1:35 AM 57.9 °F 46.4 °F 65% 29.94 in 10.0 mi Calm Calm - N/A   Clear
1:55 AM 56.7 °F 49.3 °F 76% 29.94 in 10.0 mi Calm Calm - N/A   Clear
2:15 AM 56.7 °F 48.4 °F 74% 29.94 in 10.0 mi Calm Calm - N/A   Clear
2:35 AM 57.7 °F 47.5 °F 69% 29.94 in 10.0 mi Calm Calm - N/A   Clear
2:55 AM 56.8 °F 47.3 °F 70% 29.94 in 10.0 mi Calm Calm - N/A   Clear
3:15 AM 57.7 °F 45.9 °F 65% 29.94 in 10.0 mi West 3.5 mph - N/A   Clear
3:35 AM 57.6 °F 45.7 °F 65% 29.95 in 10.0 mi Calm Calm - N/A   Clear
3:55 AM 56.8 °F 45.1 °F 65% 29.95 in 10.0 mi Calm Calm - N/A   Clear
4:15 AM 57.2 °F 45.0 °F 64% 29.95 in 10.0 mi Calm Calm - N/A   Clear
4:35 AM 55.2 °F 45.9 °F 71% 29.95 in 10.0 mi Calm Calm - N/A   Clear
4:55 AM 55.4 °F 45.3 °F 69% 29.96 in 10.0 mi Calm Calm - N/A   Clear
5:15 AM 53.6 °F 47.5 °F 80% 29.96 in 10.0 mi Calm Calm - N/A   Clear
5:35 AM 52.7 °F 47.3 °F 82% 29.97 in 10.0 mi Calm Calm - N/A   Clear
5:55 AM 52.2 °F 47.1 °F 83% 29.97 in 10.0 mi Calm Calm - N/A   Clear
6:15 AM 52.9 °F 46.4 °F 79% 29.98 in 10.0 mi Calm Calm - N/A   Clear
6:35 AM 52.7 °F 45.9 °F 78% 29.99 in 10.0 mi Calm Calm - N/A   Clear
6:55 AM 53.6 °F 46.4 °F 77% 29.99 in 10.0 mi Calm Calm - N/A   Clear
7:15 AM 52.9 °F 47.1 °F 81% 30.00 in 10.0 mi Calm Calm - N/A   Clear
7:35 AM 55.6 °F 47.3 °F 74% 30.00 in 10.0 mi Calm Calm - N/A   Clear
7:55 AM 57.0 °F 47.7 °F 71% 30.00 in 10.0 mi Calm Calm - N/A   Clear
8:15 AM 58.5 °F 48.7 °F 70% 30.00 in 10.0 mi Calm Calm - N/A   Clear
8:35 AM 60.3 °F 49.8 °F 68% 30.01 in 10.0 mi Calm Calm - N/A   Clear
8:55 AM 63.5 °F 50.5 °F 63% 30.01 in 10.0 mi Calm Calm - N/A   Clear
9:15 AM 66.4 °F 50.0 °F 56% 30.01 in - Calm Calm - N/A   Unknown
9:35 AM 67.6 °F 48.6 °F 50% 30.01 in 10.0 mi NNW 4.6 mph - N/A   Clear
9:55 AM 70.5 °F 48.4 °F 45% 30.01 in 10.0 mi NW 4.6 mph - N/A   Clear
10:15 AM 72.0 °F 46.0 °F 40% 30.00 in 10.0 mi NNW 4.6 mph - N/A   Clear
10:35 AM 72.7 °F 44.4 °F 36% 30.00 in 10.0 mi NNW 3.5 mph - N/A   Clear
10:55 AM 74.3 °F 45.1 °F 35% 30.00 in 7.0 mi West 4.6 mph - N/A   Clear
11:15 AM 74.5 °F 42.4 °F 32% 30.00 in 10.0 mi West 6.9 mph - N/A   Clear
11:35 AM 75.0 °F 43.9 °F 33% 30.00 in 10.0 mi NW 3.5 mph - N/A   Clear
11:55 AM 76.1 °F 44.6 °F 33% 29.99 in 10.0 mi WNW 4.6 mph - N/A   Clear
12:15 PM 76.5 °F 44.1 °F 31% 29.98 in 10.0 mi WNW 3.5 mph - N/A   Clear
12:35 PM 77.4 °F 44.4 °F 31% 29.97 in 10.0 mi WNW 5.8 mph - N/A   Clear
12:55 PM 77.5 °F 43.7 °F 30% 29.96 in 10.0 mi West 5.8 mph - N/A   Clear
1:15 PM 78.1 °F 44.8 °F 31% 29.95 in 10.0 mi West 5.8 mph - N/A   Clear
1:35 PM 79.2 °F 44.1 °F 29% 29.94 in 10.0 mi West 8.1 mph - N/A   Clear
1:55 PM 80.1 °F 44.6 °F 29% 29.93 in 10.0 mi West 6.9 mph - N/A   Clear
2:15 PM 80.6 °F 43.7 °F 27% 29.92 in 10.0 mi West 3.5 mph 17.3 mph N/A   Clear
2:35 PM 81.9 °F 45.1 °F 27% 29.91 in 10.0 mi West 4.6 mph - N/A   Clear
2:55 PM 82.9 °F 45.9 °F 27% 29.90 in 10.0 mi West 5.8 mph - N/A   Clear
3:15 PM 82.4 °F 43.2 °F 25% 29.89 in 10.0 mi West 4.6 mph - N/A   Clear
3:35 PM 83.3 °F 44.4 °F 25% 29.89 in 10.0 mi WSW 6.9 mph - N/A   Clear
3:55 PM 83.7 °F 44.6 °F 25% 29.88 in 10.0 mi West 6.9 mph 17.3 mph N/A   Scattered Clouds
4:15 PM 83.8 °F 44.6 °F 25% 29.87 in 10.0 mi WSW 8.1 mph 17.3 mph N/A   Clear
4:35 PM 83.8 °F 45.5 °F 26% 29.86 in 10.0 mi West 6.9 mph - N/A   Clear
4:55 PM 84.0 °F 43.9 °F 24% 29.86 in 10.0 mi West 9.2 mph 18.4 mph N/A   Clear
5:15 PM 83.7 °F 43.0 °F 24% 29.85 in 10.0 mi West 6.9 mph 18.4 mph N/A   Clear
5:35 PM 84.2 °F 44.2 °F 25% 29.85 in 10.0 mi SW 8.1 mph - N/A   Clear
5:55 PM 84.2 °F 43.9 °F 24% 29.84 in 10.0 mi WSW 9.2 mph - N/A   Clear
6:15 PM 83.8 °F 44.6 °F 25% 29.84 in 10.0 mi SW 6.9 mph - N/A   Clear
6:35 PM 83.3 °F 43.9 °F 25% 29.84 in 10.0 mi WSW 6.9 mph - N/A   Clear
6:55 PM 82.8 °F 45.1 °F 27% 29.84 in 10.0 mi WSW 6.9 mph - N/A   Clear
7:15 PM 81.7 °F 45.1 °F 28% 29.84 in 10.0 mi SW 5.8 mph - N/A   Clear
7:35 PM 80.8 °F 45.0 °F 28% 29.84 in 10.0 mi WSW 5.8 mph - N/A   Clear
7:55 PM 79.3 °F 45.9 °F 31% 29.85 in 10.0 mi SW 3.5 mph - N/A   Clear
8:15 PM 77.5 °F 46.9 °F 34% 29.86 in 10.0 mi SSW 3.5 mph - N/A   Clear
8:35 PM 75.7 °F 49.8 °F 40% 29.86 in 10.0 mi SSW 3.5 mph - N/A   Clear
8:55 PM 74.5 °F 49.8 °F 42% 29.86 in 10.0 mi SW 3.5 mph - N/A   Clear
9:15 PM 73.2 °F 51.1 °F 46% 29.86 in 10.0 mi SSW 4.6 mph - N/A   Clear
9:35 PM 73.0 °F 50.4 °F 45% 29.87 in 10.0 mi SSW 5.8 mph - N/A   Clear
9:55 PM 73.2 °F 49.5 °F 43% 29.87 in 10.0 mi SSW 5.8 mph - N/A   Clear
10:15 PM 73.0 °F 48.6 °F 42% 29.88 in 10.0 mi SW 4.6 mph - N/A   Clear
10:35 PM 72.7 °F 48.7 °F 43% 29.88 in 10.0 mi SW 4.6 mph - N/A   Clear
10:55 PM 72.7 °F 48.2 °F 42% 29.88 in 10.0 mi SW 5.8 mph - N/A   Clear
11:15 PM 72.5 °F 48.6 °F 43% 29.88 in 10.0 mi SW 4.6 mph - N/A   Clear
11:35 PM 71.8 °F 48.7 °F 44% 29.88 in 10.0 mi SW 3.5 mph - N/A   Clear
11:55 PM 71.8 °F 48.6 °F 44% 29.89 in 10.0 mi Calm Calm - N/A   Clear